| time (UTC) | temp F | wind direction | speed MPH | gust MPH | rain 1hr in | rain 24hr in | rain mn in | humidity % | barometer mb |
| 20260503150216 | 54 | 85 | 1.0 | 4.0 | 0.02 | 0.00 | 0.00 | 98 | 1022.0 |
| 20260503140206 | 64 | 96 | 2.0 | 4.0 | 0.01 | 0.00 | 0.00 | 98 | 1022.0 |
| 20260503131202 | 58 | 107 | 1.0 | 4.0 | 0.00 | 0.00 | 0.00 | 97 | 1021.0 |
| 20260503130202 | 62 | 107 | 2.0 | 4.0 | 0.00 | 0.00 | 0.00 | 97 | 1021.0 |
| 20260503120157 | 62 | 111 | 1.0 | 4.0 | 0.01 | 0.00 | 0.00 | 99 | 1020.0 |
| 20260503110153 | 56 | 105 | 1.0 | 4.0 | 0.00 | 0.00 | 0.00 | 99 | 1019.0 |
| 20260503100148 | 58 | 94 | 1.0 | 3.0 | 0.00 | 0.00 | 0.00 | 97 | 1019.0 |
| 20260503090144 | 52 | 103 | 1.0 | 1.0 | 0.00 | 0.00 | 0.00 | 97 | 1018.0 |
| 20260503081140 | 60 | 108 | 0.0 | 1.0 | 0.00 | 0.00 | 0.00 | 97 | 1018.0 |
| 20260503080140 | 64 | 108 | 0.0 | 1.0 | 0.00 | 0.00 | 0.00 | 97 | 1018.0 |
| 20260503072137 | 53 | 356 | 0.0 | 2.0 | 0.00 | 0.00 | 0.00 | 96 | 1019.0 |
| 20260503071136 | 57 | 356 | 0.0 | 2.0 | 0.00 | 0.00 | 0.00 | 96 | 1019.0 |
| 20260503070135 | 60 | 356 | 0.0 | 2.0 | 0.00 | 0.00 | 0.00 | 96 | 1019.0 |
| 20260503060130 | 56 | 97 | 0.0 | 2.0 | 0.00 | 0.00 | 0.00 | 97 | 1020.0 |
| 20260503054129 | 63 | 97 | 0.0 | 2.0 | 0.00 | 0.00 | 0.00 | 97 | 1020.0 |
| 20260503053128 | 59 | 73 | 0.0 | 2.0 | 0.00 | 0.00 | 0.00 | 97 | 1021.0 |
| 20260503052127 | 59 | 73 | 0.0 | 2.0 | 0.00 | 0.00 | 0.00 | 97 | 1021.0 |
| 20260503051127 | 63 | 73 | 0.0 | 2.0 | 0.00 | 0.00 | 0.00 | 97 | 1021.0 |
| 20260503050126 | 56 | 73 | 0.0 | 2.0 | 0.00 | 0.00 | 0.00 | 97 | 1021.0 |
| 20260503045125 | 60 | 73 | 0.0 | 2.0 | 0.00 | 0.00 | 0.00 | 97 | 1021.0 |
| 20260503044124 | 64 | 73 | 0.0 | 2.0 | 0.00 | 0.00 | 0.00 | 97 | 1021.0 |
| 20260503043124 | 52 | 73 | 0.0 | 2.0 | 0.00 | 0.00 | 0.00 | 97 | 1021.0 |
| 20260503042123 | 56 | 33 | 0.0 | 3.0 | 0.00 | 0.00 | 0.00 | 97 | 1022.0 |
| 20260503041122 | 59 | 33 | 0.0 | 3.0 | 0.00 | 0.00 | 0.00 | 96 | 1022.0 |
| 20260503040121 | 63 | 33 | 0.0 | 3.0 | 0.00 | 0.00 | 0.00 | 96 | 1022.0 |
| 20260503035121 | 56 | 33 | 0.0 | 3.0 | 0.00 | 0.00 | 0.00 | 96 | 1022.0 |
| 20260503034120 | 60 | 33 | 0.0 | 3.0 | 0.00 | 0.00 | 0.00 | 96 | 1022.0 |
| 20260503033119 | 64 | 33 | 0.0 | 3.0 | 0.00 | 0.00 | 0.00 | 96 | 1022.0 |
| 20260503032119 | 60 | 89 | 1.0 | 3.0 | 0.00 | 0.00 | 0.00 | 96 | 1021.0 |
| 20260503031118 | 53 | 89 | 1.0 | 3.0 | 0.00 | 0.00 | 0.00 | 96 | 1021.0 |
| 20260503030117 | 57 | 89 | 1.0 | 3.0 | 0.00 | 0.00 | 0.00 | 96 | 1021.0 |
| 20260503025117 | 61 | 89 | 1.0 | 3.0 | 0.00 | 0.00 | 0.00 | 96 | 1021.0 |
| 20260503024116 | 56 | 89 | 1.0 | 3.0 | 0.00 | 0.00 | 0.00 | 96 | 1021.0 |
| 20260503023115 | 59 | 89 | 1.0 | 3.0 | 0.00 | 0.00 | 0.00 | 95 | 1021.0 |
| 20260503022114 | 63 | 81 | 0.0 | 3.0 | 0.00 | 0.00 | 0.00 | 95 | 1020.0 |
| 20260503021114 | 53 | 81 | 0.0 | 3.0 | 0.00 | 0.00 | 0.00 | 94 | 1020.0 |
| 20260503020112 | 57 | 81 | 0.0 | 3.0 | 0.00 | 0.00 | 0.00 | 94 | 1020.0 |
| 20260503015112 | 60 | 81 | 0.0 | 3.0 | 0.00 | 0.00 | 0.00 | 94 | 1020.0 |
| 20260503014111 | 64 | 81 | 0.0 | 3.0 | 0.00 | 0.00 | 0.00 | 94 | 1020.0 |
| 20260503013110 | 60 | 81 | 0.0 | 3.0 | 0.00 | 0.00 | 0.00 | 94 | 1020.0 |
| 20260503012109 | 53 | 69 | 0.0 | 2.0 | 0.00 | 0.00 | 0.00 | 94 | 1020.0 |
| 20260503011109 | 57 | 69 | 0.0 | 2.0 | 0.00 | 0.00 | 0.00 | 94 | 1020.0 |
| 20260503010108 | 61 | 69 | 0.0 | 2.0 | 0.00 | 0.00 | 0.00 | 94 | 1020.0 |
| 20260503005107 | 56 | 147 | 1.0 | 1.0 | 0.00 | 0.00 | 0.00 | 94 | 1020.0 |
| 20260503004106 | 60 | 147 | 1.0 | 1.0 | 0.00 | 0.00 | 0.00 | 94 | 1020.0 |
| 20260503003106 | 64 | 147 | 1.0 | 2.0 | 0.00 | 0.00 | 0.00 | 94 | 1020.0 |
| 20260503002105 | 54 | 312 | 1.0 | 1.0 | 0.00 | 0.00 | 0.00 | 95 | 1019.0 |
| 20260503001104 | 58 | 312 | 1.0 | 1.0 | 0.00 | 0.00 | 0.00 | 95 | 1019.0 |
| 20260503000104 | 62 | 312 | 1.0 | 2.0 | 0.00 | 0.00 | 0.00 | 95 | 1019.0 |
| 20260502235103 | 55 | 312 | 1.0 | 1.0 | 0.00 | 0.00 | 0.00 | 96 | 1019.0 |
| 20260502234102 | 59 | 312 | 1.0 | 1.0 | 0.00 | 0.00 | 0.00 | 96 | 1019.0 |
| 20260502233101 | 63 | 312 | 1.0 | 2.0 | 0.00 | 0.00 | 0.00 | 96 | 1019.0 |
| 20260502232101 | 56 | 4 | 0.0 | 3.0 | 0.00 | 0.00 | 0.00 | 95 | 1018.0 |
| 20260502231100 | 60 | 4 | 0.0 | 3.0 | 0.00 | 0.00 | 0.00 | 95 | 1018.0 |
| 20260502230100 | 60 | 4 | 0.0 | 3.0 | 0.00 | 0.00 | 0.00 | 95 | 1018.0 |
| 20260502225059 | 53 | 4 | 0.0 | 3.0 | 0.00 | 0.00 | 0.00 | 95 | 1018.0 |
| 20260502224058 | 57 | 4 | 0.0 | 3.0 | 0.00 | 0.00 | 0.00 | 95 | 1018.0 |
| 20260502223057 | 61 | 4 | 0.0 | 3.0 | 0.00 | 0.00 | 0.00 | 95 | 1018.0 |
| 20260502222057 | 56 | 64 | 0.0 | 4.0 | 0.00 | 0.00 | 0.00 | 97 | 1017.0 |
| 20260502221056 | 59 | 64 | 0.0 | 4.0 | 0.00 | 0.00 | 0.00 | 97 | 1017.0 |
| 20260502220055 | 63 | 64 | 0.0 | 4.0 | 0.00 | 0.00 | 0.00 | 97 | 1017.0 |
| 20260502215055 | 56 | 65 | 1.0 | 4.0 | 0.00 | 0.00 | 0.00 | 98 | 1017.0 |
| 20260502214054 | 60 | 65 | 1.0 | 4.0 | 0.00 | 0.00 | 0.00 | 98 | 1017.0 |
| 20260502213053 | 63 | 65 | 1.0 | 4.0 | 0.00 | 0.00 | 0.00 | 98 | 1017.0 |
| 20260502212052 | 63 | 65 | 1.0 | 4.0 | 0.00 | 0.00 | 0.00 | 98 | 1017.0 |
| 20260502211052 | 60 | 65 | 1.0 | 4.0 | 0.00 | 0.00 | 0.00 | 98 | 1017.0 |
| 20260502210051 | 54 | 65 | 1.0 | 4.0 | 0.00 | 0.00 | 0.00 | 98 | 1017.0 |
| 20260502205051 | 57 | 65 | 1.0 | 4.0 | 0.00 | 0.00 | 0.00 | 98 | 1017.0 |
| 20260502204050 | 61 | 65 | 1.0 | 4.0 | 0.00 | 0.00 | 0.00 | 98 | 1017.0 |
| 20260502203049 | 55 | 83 | 1.0 | 4.0 | 0.00 | 0.00 | 0.00 | 98 | 1017.0 |
| 20260502202048 | 58 | 83 | 1.0 | 4.0 | 0.00 | 0.00 | 0.00 | 98 | 1018.0 |
| 20260502201047 | 54 | 83 | 1.0 | 4.0 | 0.00 | 0.00 | 0.00 | 95 | 1018.0 |
| 20260502200047 | 58 | 83 | 1.0 | 4.0 | 0.00 | 0.00 | 0.00 | 95 | 1018.0 |
| 20260502195046 | 61 | 83 | 1.0 | 4.0 | 0.00 | 0.00 | 0.00 | 95 | 1018.0 |
| 20260502194045 | 65 | 83 | 1.0 | 4.0 | 0.00 | 0.00 | 0.00 | 95 | 1018.0 |
| 20260502193044 | 61 | 87 | 1.0 | 4.0 | 0.00 | 0.00 | 0.00 | 95 | 1018.0 |
| 20260502192043 | 61 | 87 | 1.0 | 4.0 | 0.00 | 0.00 | 0.00 | 95 | 1018.0 |
| 20260502191043 | 65 | 87 | 2.0 | 4.0 | 0.00 | 0.00 | 0.00 | 95 | 1018.0 |
| 20260502190042 | 62 | 87 | 2.0 | 4.0 | 0.00 | 0.00 | 0.00 | 95 | 1018.0 |